Showing default

GOES 17, 43226

Orbit data source: Space-Track

GOES 17, 43226 is a payload satellite owned by NOAA (US) in GEO that was launched on Thu, 01 Mar 2018 UTC via an ATLAS V 541 launch vehicle from the Air Force Eastern Test Range (AFETR). Payload-class satellites include a variety of spacecraft equipped with specific instruments for various scientific and technological missions. These include communications satellites like Starlink; space stations such as the ISS; scientific satellites like the Hubble; Earth observation satellites from companies like Planet Labs, Umbra, and HawkEye 360; GPS; miniature CubeSats for education and research; and military/defense satellites.

Loading next visibility...
Identifier
43226, 2018-022A
Orbit
GEO
Country
Flag of USUS
Related business
Manufacturer
LMCSS
Mission
On reserve Civil Weather
Bus & Motor
A2100, LEROS-1C
Mass
5,192 kg wet, 2,857 kg dry
Launch date (UTC)
2018-03-01 (8 years ago)
Launch vehicle
ATLAS V 541
Launch site
Air Force Eastern Test Range (AFETR)
Object type
Payload
Rocket body
Debris
Shape & HBR
Box + 1 Pan + 1 Ant, 20.0 m
Radar Cross Section
38.538 m², Large (>1 m²)

Expand to show TLE details & history
Last TLE update: 2 days ago

TLE from 2 days ago
0 GOES 17
1 43226U 18022A   26171.38933449 -.00000187  00000-0  00000+0 0  9996
2 43226   0.9463  85.6559 0000598  28.1563 205.4138  1.00269480 30451
Epoch: 2026-06-20T09:20Z
TLE epoch observation values (Epoch: 2026-06-20T09:20:38.499Z)
Latitude
-0.77557°
Longitude
-89.53219°
Altitude
35,789.117 km
Speed
3.075 km/s
True Right ascension
21h 16m 55s
True Declination
0° 46' 29"
Sunlit
Object was in daylight at epoch
Visualization orbit readout
Latitude
Unknown
Longitude
Unknown
Altitude
Unknown
Speed
Unknown
Apparent Right ascension
Unknown
Apparent Declination
Unknown
Sunlit
N/A
Visualization observer readout
Local Sidereal Time
23:26:58
Azimuth
Unknown
Elevation
Unknown
Doppler factor
Unknown
Orbital elements
Apogee altitude
35,790.833 km
Perigee altitude
35,785.79 km
Semi-major axis
42,166.448 km
Eccentricity
0.00006
Inclination
0.9463°
RAAN
85.6559°
Arg. of periapsis
28.1563°
True anomaly
205.41086°
Mean anomaly
205.4138°
Eccentric anomaly
205.41233°
Mean motion
0.25066 °/min
Orbital period
1,436.18 mins
BSTAR
0
Loading maneuver chart data...
Computing Atmospheric mass density...
Loading historical data...
Loading historical data...
Loading historical data...
Loading historical data...
Loading historical data...
Loading historical data...
Loading historical data...
Other satellites on launch #22 in the year 2018 (2018-03-01 UTC)

Documentation

Showing up to 5 results
|